Temperature
14 15 15 16 13 11 12 12 12 13 13 14 14 14 14 14 14 15 15 15 15 15 15 15 15 15 15 15 16 16 16 16 16 15 15 15 15 15 15 15 15 15 15 15 15 15 15 15 15
14 15 15 15 11 11 12 11 12 12 13 14 14 14 13 13 14 14 14 14 14 14 15 15 15 15 15 15 15 15 15 15 15 15 15 15 15 15 15 15 15 15 15 15 15 15 15 15 14
14 15 15 10 10 11 12 12 11 12 13 13 13 13 13 13 14 14 14 14 14 14 14 14 14 14 14 15 15 15 15 15 15 15 15 15 15 15 15 15 15 15 15 15 14 14 14 14 14
14 14 13 10 11 11 12 12 11 12 13 13 13 12 13 13 13 13 13 14 14 14 14 14 14 14 14 14 14 15 15 15 15 15 15 15 15 15 15 15 15 15 15 14 14 14 14 14 14
14 13 10 10 10 10 10 11 12 11 11 12 12 11 12 13 13 13 13 13 13 14 14 14 14 14 14 14 14 14 14 15 15 15 15 15 15 15 15 15 15 14 14 14 14 14 14 14 14
13 10 9 10 10 10 10 12 11 11 11 11 11 11 12 12 13 13 13 13 13 13 13 13 13 13 14 14 14 14 14 14 14 14 15 15 15 15 15 15 14 14 14 14 14 14 14 14 13
11 8 9 9 9 10 11 11 11 10 10 11 11 10 11 12 12 12 12 12 12 13 13 13 13 13 13 13 13 13 14 14 14 14 14 14 14 15 15 15 14 14 14 14 14 14 14 14 13
11 8 8 8 9 10 10 11 11 11 10 11 11 10 10 11 11 11 12 12 12 12 12 12 13 12 13 13 13 13 13 13 13 14 14 14 14 14 14 14 14 14 14 14 14 14 14 13 13
10 7 8 8 9 9 10 10 10 10 10 10 10 10 10 10 11 11 11 11 11 12 12 12 12 12 12 12 12 13 13 13 13 13 13 13 14 14 14 14 14 14 14 14 14 13 13 13 13
9 7 8 9 9 9 9 9 9 9 9 9 9 10 10 10 10 10 10 11 11 11 11 12 12 12 12 12 12 12 12 12 13 13 13 13 13 13 13 13 13 13 13 13 13 13 13 13 13
8 7 8 8 9 9 8 9 9 9 8 8 9 9 9 10 10 10 10 10 10 10 11 11 11 11 11 11 11 12 12 12 12 12 12 12 13 13 13 13 13 13 13 13 13 13 13 13 13
7 7 8 8 9 8 8 8 8 8 8 9 9 9 9 9 9 9 10 10 10 10 10 11 11 11 11 11 11 11 11 12 12 12 12 12 12 12 12 12 13 13 13 13 13 13 13 13 13
7 7 8 8 8 8 8 7 7 7 8 9 9 9 9 8 9 9 9 9 10 10 10 10 10 10 10 11 11 11 11 11 11 11 11 12 12 12 12 12 12 12 12 12 12 12 12 12 12
7 7 7 8 8 7 7 7 7 7 8 8 8 8 8 8 8 8 9 9 9 9 9 10 10 10 10 10 10 10 10 11 11 11 11 11 11 11 11 11 11 11 11 12 12 12 12 12 12
7 6 6 7 7 7 7 6 5 7 7 7 7 7 7 7 8 8 8 8 9 9 9 9 9 10 10 10 10 10 10 10 10 10 10 10 11 11 11 11 11 11 11 11 11 11 11 11 11
6 6 6 7 7 7 7 6 6 6 6 6 6 6 7 7 7 8 8 8 8 8 9 9 9 9 9 9 9 9 9 9 10 10 10 10 10 10 10 10 11 11 11 11 11 11 11 11 11
5 5 6 6 6 6 6 5 5 6 6 6 6 6 6 7 7 7 7 8 8 8 8 8 8 9 9 9 9 9 9 9 9 9 9 10 10 10 10 10 10 10 10 10 10 10 10 10 11
6 5 6 6 6 6 5 4 5 5 5 5 6 6 6 6 7 7 7 7 7 7 8 8 8 8 8 8 8 8 9 9 9 9 9 9 9 9 9 9 10 10 10 10 10 10 10 10 10
6 5 5 6 6 5 5 4 5 5 5 5 5 5 6 6 6 6 7 7 7 7 7 7 8 8 8 8 8 8 8 8 8 8 8 8 9 9 9 9 9 9 9 9 9 9 9 9 9
6 5 5 5 6 5 4 4 5 5 5 5 5 5 5 5 6 6 6 7 7 7 7 7 7 7 7 7 7 7 7 8 8 8 8 8 8 8 8 8 9 9 9 9 9 9 9 9 9
6 5 5 5 5 5 5 5 5 5 5 5 5 5 5 5 5 6 6 6 6 6 6 6 7 7 7 7 7 7 7 7 7 7 7 7 8 8 8 8 8 8 8 9 9 9 8 8 8
5 6 5 5 5 4 5 4 4 4 4 4 4 4 5 5 5 5 5 5 6 6 6 6 6 6 7 7 7 7 7 7 7 7 7 7 7 7 7 7 7 8 8 8 8 8 8 8 8
5 5 5 5 4 4 4 4 4 4 4 4 4 4 4 4 5 5 5 5 5 5 5 6 6 6 6 6 6 6 6 6 6 6 6 6 7 7 7 7 7 7 7 7 8 8 8 8 8
5 4 4 3 3 4 4 4 4 3 3 3 3 4 4 4 5 5 5 5 5 5 5 5 5 5 6 6 6 6 6 6 6 6 6 6 6 6 6 6 7 7 7 7 7 7 7 7 7
4 4 4 4 3 4 4 4 4 4 3 3 3 4 4 4 4 4 4 4 5 5 5 5 5 5 5 5 5 5 5 5 5 6 6 6 6 6 6 6 6 6 6 7 7 7 7 7 7
4 4 4 4 4 4 3 3 4 3 4 4 4 4 4 4 4 4 4 4 4 4 4 4 5 5 5 5 5 5 5 5 5 5 6 6 6 6 6 6 6 6 6 6 6 6 6 6 6
4 3 3 2 2 2 3 2 3 3 3 3 3 3 3 3 4 4 4 4 4 4 4 4 4 5 5 5 5 5 5 5 5 5 5 5 5 5 5 5 5 5 5 5 5 5 5 5 5
3 3 2 2 3 3 3 3 3 3 2 2 2 2 3 3 3 3 3 3 4 4 4 4 4 4 4 4 4 5 5 5 5 5 5 5 5 5 5 5 5 5 5 5 5 5 5 5 5
3 3 2 1 2 3 3 4 3 3 2 1 1 2 3 3 3 3 3 3 3 3 3 3 4 4 4 4 4 4 4 4 4 4 4 4 4 4 4 4 4 4 4 4 4 4 4 4 4
2 2 2 2 2 1 2 3 3 2 2 1 1 2 2 3 3 3 3 3 3 3 3 3 3 4 4 4 4 4 4 4 4 4 4 4 4 4 4 4 4 4 4 4 4 4 4 4 4
Wind_Speed
10 6 2 4 5 3 3 4 2 1 1 1 0 2 3 3 3 2 1 2 3 3 3 4 4 4 5 5 6 6 6 7 7 7 7 6 6 6 7 7 7 7 7 8 9 9 10 10 10
5 3 4 4 4 2 4 4 3 3 2 0 2 2 2 1 1 1 1 1 3 3 4 4 5 4 4 5 5 6 6 6 6 6 6 6 5 5 6 7 6 6 7 7 8 8 9 10 9
4 4 4 4 3 7 5 3 4 2 1 1 2 2 1 1 1 0 1 1 4 4 4 4 5 4 5 4 5 5 5 5 5 6 6 6 5 5 5 5 6 6 6 7 7 8 8 9 9
3 4 4 2 5 5 4 2 2 1 2 2 2 2 1 1 0 0 2 3 4 4 4 4 4 4 5 5 5 5 4 5 5 5 5 5 5 5 5 4 5 6 5 6 7 7 8 8 9
4 4 2 2 6 4 2 2 1 0 1 1 1 0 2 2 3 3 3 3 3 3 4 4 4 4 5 5 5 4 4 4 5 4 4 4 4 5 4 4 4 5 5 6 6 6 7 8 8
4 3 2 5 6 3 2 2 0 1 1 1 1 1 2 2 3 2 3 2 2 2 4 4 4 4 5 5 5 4 4 5 4 4 4 3 3 4 4 3 3 3 4 5 6 6 6 7 8
4 3 3 4 4 3 2 1 1 1 1 2 1 1 2 2 3 2 2 3 3 3 4 4 4 4 4 4 4 5 5 5 4 5 4 4 4 4 3 3 3 3 3 4 5 5 6 7 7
4 3 2 2 3 4 1 1 0 1 2 1 1 2 3 3 2 2 3 3 3 3 3 3 4 5 4 4 5 5 5 5 5 6 6 5 5 5 4 4 3 2 3 4 4 4 5 6 7
3 2 4 5 4 3 1 1 2 2 1 2 1 2 3 0 1 2 2 2 2 2 2 2 4 5 4 4 4 5 5 6 6 6 7 6 6 5 5 5 4 3 3 3 3 4 4 5 6
3 3 5 3 3 2 2 1 2 2 2 2 4 3 2 1 1 2 1 1 1 1 1 1 3 4 4 4 5 5 5 5 6 6 6 6 6 6 5 5 5 4 3 3 3 3 4 4 4
2 3 2 2 2 1 2 3 1 1 4 5 4 2 1 1 1 1 2 2 3 2 1 0 2 3 3 4 4 4 5 5 6 6 6 6 6 6 6 5 5 5 5 4 4 4 4 4 3
1 1 2 2 2 1 2 2 1 2 5 4 4 3 1 1 1 2 3 2 2 1 1 0 2 2 3 3 3 4 4 4 4 4 5 5 4 4 4 4 4 4 4 4 4 4 4 3 3
1 1 1 1 2 1 2 3 2 4 5 2 1 2 2 2 3 3 2 2 2 2 2 1 1 2 2 3 3 3 3 2 2 3 3 4 3 2 2 3 3 4 3 2 2 2 2 2 2
1 0 2 3 2 2 1 4 2 4 2 1 1 1 1 2 2 2 3 3 3 3 3 1 1 1 2 2 2 2 2 2 2 3 3 3 3 2 2 2 2 2 2 2 1 1 2 1 1
0 2 4 3 2 2 1 4 3 5 1 1 1 1 2 2 1 2 3 3 3 3 2 1 1 1 2 2 2 2 2 2 2 2 2 2 3 2 1 1 1 2 2 2 2 2 2 1 1
2 3 2 4 2 2 1 4 5 3 1 1 2 2 2 3 2 3 3 3 3 2 1 1 1 1 1 1 1 2 2 2 2 2 2 2 2 2 1 1 1 2 2 2 1 1 1 1 1
4 1 2 4 2 2 1 4 6 3 1 1 3 3 3 3 3 3 3 2 2 2 1 1 1 0 1 1 1 2 2 2 2 2 2 1 1 1 1 1 1 2 1 1 0 1 1 0 1
2 2 3 4 3 2 1 5 7 5 0 2 3 3 3 3 4 3 2 2 1 2 1 1 1 0 1 1 1 1 1 1 2 1 1 1 1 1 1 1 1 1 0 1 1 1 1 0 0
3 2 4 5 2 1 2 5 6 4 1 2 3 3 3 4 3 2 2 2 2 2 3 2 1 1 0 1 1 1 1 1 1 1 1 0 1 1 1 1 1 1 0 0 0 1 2 1 1
2 2 3 3 1 1 2 5 5 3 2 3 3 3 4 4 4 3 3 2 2 2 3 2 1 1 1 1 1 2 2 2 1 1 1 1 1 0 0 0 1 1 0 0 0 1 1 1 1
2 3 3 4 4 1 2 5 4 3 2 2 2 2 3 2 3 3 3 3 3 3 3 3 2 2 1 1 0 0 0 1 1 1 1 2 1 1 1 1 0 1 1 0 0 1 2 2 0
3 3 3 2 2 3 1 3 5 3 3 4 4 3 3 3 3 2 3 3 3 3 3 3 2 2 2 1 1 2 2 1 1 1 1 2 2 1 1 1 1 0 0 0 0 1 1 2 1
3 2 2 1 1 2 1 1 6 1 3 5 5 4 4 3 3 3 3 4 4 3 3 3 2 2 1 1 1 2 2 1 1 0 0 1 1 2 2 1 1 0 0 0 0 1 1 1 1
1 1 2 3 2 2 3 2 5 3 4 4 4 4 5 4 3 3 3 3 3 3 3 3 2 3 2 1 1 2 2 2 1 1 0 1 1 0 2 1 1 1 0 1 1 1 1 1 1
3 3 3 4 2 4 1 2 6 4 4 4 5 5 4 3 3 3 4 4 4 4 3 3 2 3 3 1 1 1 2 3 3 2 2 1 0 0 1 1 1 0 0 1 1 1 1 2 2
0 2 3 3 3 4 2 4 6 3 4 3 3 3 4 4 3 4 4 3 4 4 4 3 3 3 3 2 1 1 2 2 2 3 2 2 1 1 1 0 0 1 0 0 0 1 1 1 1
2 1 2 3 0 2 5 6 7 2 5 5 6 5 5 5 5 5 4 3 3 4 4 4 3 4 4 2 2 1 1 1 2 2 2 1 1 0 0 0 0 0 1 1 1 1 1 1 1
1 3 3 2 1 3 5 5 5 5 6 5 5 5 6 6 6 6 5 4 4 4 4 4 3 4 4 2 2 1 1 1 2 2 2 2 1 1 1 0 0 1 1 1 2 1 1 1 1
1 2 2 2 2 3 4 6 4 5 5 4 5 5 5 6 6 6 5 4 4 4 4 4 4 4 3 1 1 0 0 1 1 2 2 2 1 1 1 1 0 1 1 1 2 1 1 1 1
3 3 4 3 3 3 3 7 3 3 4 4 5 6 5 5 5 5 5 4 5 5 4 4 4 4 3 2 1 0 0 1 1 1 1 2 1 1 1 1 1 1 1 1 1 1 1 1 1
Wind_Direction
341 352 45 57 63 63 222 238 222 226 238 280 245 142 152 158 166 200 352 75 83 102 102 114 103 99 107 106 101 92 88 86 83 80 78 84 97 108 109 114 116 119 120 120 118 118 116 113 111
341 4 49 66 109 184 248 228 220 226 217 93 39 66 75 266 331 40 15 26 86 90 89 99 97 89 97 110 107 99 93 92 87 81 77 74 84 102 112 109 115 122 121 122 124 121 121 119 117
2 46 78 91 151 196 213 210 208 268 311 74 47 28 118 244 320 354 337 83 77 66 74 96 93 84 88 106 105 100 96 95 91 84 81 76 75 86 105 115 114 124 132 126 129 129 128 126 122
51 49 59 106 207 221 213 231 196 235 358 36 90 347 311 316 287 112 80 80 76 50 61 88 92 87 85 91 99 97 100 97 92 89 84 83 74 75 86 108 121 118 131 136 132 136 134 133 128
56 78 93 216 232 239 249 274 213 177 289 352 89 255 293 339 46 78 87 84 91 54 52 81 92 92 86 84 89 91 93 94 90 91 91 90 84 77 77 90 116 123 124 139 141 140 140 140 135
58 74 141 220 236 250 268 285 348 323 324 347 72 216 258 3 42 68 85 61 59 69 54 74 86 93 88 84 80 82 83 84 82 80 84 84 90 90 83 86 115 131 131 132 146 148 147 148 143
105 114 186 213 241 259 255 309 160 229 278 260 206 191 268 338 357 24 50 46 42 55 57 51 71 78 92 91 82 77 80 79 79 76 71 75 79 84 84 82 95 116 134 131 140 148 151 154 148
117 111 162 222 228 255 283 359 349 171 252 275 136 176 253 285 330 31 43 49 44 50 49 42 52 60 62 81 86 77 77 76 74 73 60 66 72 74 75 70 75 88 107 128 129 142 143 151 146
87 102 211 218 216 248 329 6 333 358 72 331 292 242 265 293 54 68 42 27 21 28 41 48 56 46 48 62 81 81 78 77 72 67 62 56 58 60 61 60 60 58 77 102 118 125 126 131 139
90 178 224 225 210 237 299 312 295 342 332 315 318 339 12 48 100 138 181 232 256 296 325 58 62 58 53 56 60 69 68 67 66 63 64 59 53 54 57 56 54 51 61 83 100 104 113 101 106
116 185 224 276 266 277 299 302 306 201 269 263 255 261 343 9 352 231 233 244 237 234 283 41 66 62 65 59 50 52 58 55 60 64 67 66 57 52 51 46 37 37 42 49 61 66 80 96 96
125 265 222 275 310 331 296 287 300 257 257 261 221 197 189 234 290 270 250 262 288 291 275 273 68 64 64 72 63 52 53 59 59 65 75 72 63 51 47 47 35 37 43 41 48 55 53 82 105
179 287 310 283 345 354 341 295 269 287 285 295 183 161 197 241 278 303 300 283 282 292 276 216 132 111 85 82 73 50 40 46 70 72 75 81 76 56 42 40 42 33 37 44 51 58 66 60 87
204 333 332 328 318 340 344 314 325 287 308 43 90 177 232 251 276 316 323 311 295 276 269 234 156 124 103 93 89 64 49 43 58 61 61 76 79 73 48 27 29 18 21 32 62 91 100 76 94
28 15 357 341 326 306 360 337 302 293 12 62 301 281 283 288 303 297 295 301 296 284 275 283 211 129 122 115 100 76 56 53 40 49 57 69 73 76 67 37 6 3 17 35 59 77 80 90 84
34 42 357 329 348 306 134 278 299 327 86 291 287 289 291 300 301 299 303 307 318 319 277 281 274 148 143 121 94 78 61 59 40 47 51 55 59 62 64 35 344 1 27 48 84 101 79 93 84
31 9 292 308 342 338 141 253 293 322 96 285 290 287 288 297 310 309 306 296 305 318 266 267 311 199 174 127 86 82 66 51 37 57 52 41 43 44 48 15 350 5 23 30 61 98 107 145 78
265 268 272 284 310 5 319 273 293 306 155 272 280 285 300 297 295 306 311 309 311 335 333 300 313 303 172 126 77 54 36 15 21 38 43 39 25 21 34 12 347 3 7 16 26 106 70 64 153
206 222 267 279 284 321 266 275 286 296 306 278 284 284 291 286 302 331 323 321 343 348 352 321 308 315 353 170 184 236 274 304 318 343 15 17 17 17 35 351 326 325 225 228 230 145 118 61 34
200 249 273 291 303 284 278 277 271 273 249 238 261 280 284 304 337 343 340 345 332 320 321 326 300 310 292 253 211 216 233 255 284 326 354 4 25 11 287 246 260 274 257 79 107 109 129 109 67
280 224 255 282 327 360 295 296 264 274 286 299 284 281 297 293 298 323 344 339 326 318 303 316 298 286 269 276 227 141 19 360 2 325 309 342 359 1 2 307 290 277 216 173 143 134 127 154 81
279 271 257 271 329 308 8 288 282 260 301 317 307 312 308 306 311 331 335 327 321 314 310 296 306 290 272 225 195 199 206 232 246 254 276 327 360 5 6 359 337 327 29 93 186 121 132 150 163
249 301 281 268 206 311 327 225 288 298 295 295 296 298 295 294 305 318 316 307 321 321 311 293 313 306 286 242 201 203 210 233 232 101 357 342 351 12 8 9 17 5 339 153 138 124 119 144 150
237 30 48 51 67 296 247 198 282 245 251 286 291 288 289 295 301 309 318 333 338 338 336 315 318 321 309 274 199 200 201 199 171 158 181 312 316 350 8 11 10 2 319 203 195 177 151 145 124
52 78 21 358 351 261 274 233 259 261 249 248 267 278 290 303 309 318 334 339 329 325 320 308 307 318 308 287 227 208 206 198 187 189 187 208 271 292 305 351 318 308 280 245 188 174 173 172 160
220 125 152 221 250 289 319 252 264 278 278 273 288 311 335 337 329 319 311 309 317 311 305 300 294 302 299 278 256 227 211 203 192 193 187 192 217 232 244 283 319 323 33 58 141 155 185 158 169
130 162 166 146 239 282 276 282 298 307 329 336 342 344 332 323 317 314 318 318 320 316 306 295 291 301 294 268 249 238 219 196 187 192 177 186 198 219 32 319 65 8 88 95 98 130 180 164 173
129 145 97 120 203 277 288 276 267 285 297 314 320 315 310 318 322 319 318 319 317 312 312 313 304 294 288 270 247 232 239 205 187 180 177 182 180 172 159 121 75 88 90 100 98 90 98 135 188
88 100 111 126 171 188 275 275 239 243 269 280 290 299 304 309 312 314 315 318 320 325 328 324 316 313 310 302 293 295 287 200 169 172 181 170 164 168 182 173 141 120 113 103 101 89 114 110 81
170 181 159 170 241 207 229 271 287 256 281 293 297 304 311 311 313 317 318 332 335 332 330 324 323 320 319 320 312 291 58 104 135 177 165 150 156 178 201 173 150 145 125 113 112 100 113 113 91
Height
1499 1500 1501 1504 1508 1519 1522 1518 1515 1514 1513 1512 1512 1512 1512 1514 1517 1520 1515 1512 1512 1513 1514 1515 1515 1516 1517 1518 1518 1519 1519 1519 1520 1520 1521 1521 1522 1522 1523 1523 1524 1525 1525 1526 1526 1526 1527 1527 1528
1499 1500 1503 1504 1514 1524 1521 1516 1514 1512 1511 1511 1511 1511 1511 1512 1513 1513 1511 1511 1512 1513 1514 1514 1515 1516 1516 1517 1518 1518 1519 1519 1519 1520 1520 1521 1521 1522 1522 1523 1523 1524 1525 1525 1526 1526 1527 1527 1528
1499 1500 1503 1507 1516 1519 1515 1512 1512 1511 1511 1510 1511 1511 1512 1512 1512 1511 1511 1511 1512 1513 1513 1514 1514 1515 1516 1516 1517 1517 1518 1518 1519 1519 1520 1520 1521 1521 1522 1522 1523 1524 1524 1525 1525 1526 1526 1527 1527
1500 1502 1504 1511 1514 1513 1511 1510 1510 1510 1510 1510 1511 1511 1512 1512 1512 1511 1511 1511 1512 1512 1513 1513 1514 1514 1515 1515 1516 1516 1517 1518 1518 1518 1519 1519 1520 1520 1521 1522 1522 1523 1523 1524 1525 1525 1526 1526 1527
1500 1502 1509 1515 1513 1511 1510 1509 1509 1510 1510 1510 1511 1511 1510 1511 1511 1511 1511 1511 1511 1511 1512 1512 1513 1514 1514 1514 1515 1515 1516 1517 1517 1517 1518 1518 1519 1519 1520 1521 1521 1522 1522 1523 1524 1524 1525 1526 1526
1501 1503 1514 1515 1512 1510 1510 1509 1509 1509 1510 1510 1511 1511 1510 1510 1510 1510 1510 1510 1511 1511 1511 1512 1512 1513 1513 1513 1514 1514 1515 1515 1516 1516 1517 1517 1518 1518 1519 1519 1520 1521 1521 1522 1523 1523 1524 1525 1526
1502 1508 1513 1513 1513 1511 1509 1509 1509 1510 1510 1511 1511 1510 1509 1509 1509 1509 1510 1510 1510 1510 1510 1511 1511 1512 1512 1512 1513 1513 1514 1514 1514 1515 1515 1516 1516 1517 1517 1518 1519 1519 1520 1521 1522 1522 1523 1524 1524
1502 1508 1513 1515 1514 1511 1509 1509 1509 1510 1510 1511 1511 1510 1509 1509 1509 1509 1509 1509 1509 1509 1509 1510 1510 1510 1511 1511 1512 1512 1513 1513 1513 1514 1514 1514 1515 1515 1516 1516 1517 1518 1519 1519 1520 1521 1521 1522 1523
1503 1512 1514 1513 1512 1510 1508 1509 1509 1509 1509 1509 1509 1509 1509 1508 1508 1507 1507 1507 1508 1508 1508 1508 1508 1509 1509 1510 1510 1511 1511 1512 1512 1512 1513 1513 1513 1513 1514 1515 1515 1516 1517 1518 1519 1519 1520 1521 1522
1505 1513 1510 1509 1509 1509 1508 1508 1509 1509 1508 1508 1507 1507 1507 1507 1506 1506 1505 1505 1505 1506 1506 1506 1507 1507 1508 1508 1509 1509 1509 1510 1510 1511 1511 1511 1511 1512 1512 1513 1514 1514 1515 1516 1517 1518 1519 1520 1520
1506 1509 1508 1508 1508 1508 1508 1508 1509 1508 1508 1507 1505 1505 1505 1505 1505 1504 1504 1504 1504 1504 1504 1505 1505 1506 1506 1507 1507 1508 1508 1508 1509 1509 1510 1510 1510 1510 1511 1511 1512 1512 1513 1514 1515 1516 1517 1518 1518
1507 1508 1507 1508 1507 1507 1508 1508 1508 1507 1507 1505 1505 1504 1504 1503 1503 1503 1503 1503 1502 1502 1502 1503 1503 1504 1505 1505 1505 1506 1506 1506 1507 1507 1508 1508 1508 1509 1509 1509 1510 1510 1511 1512 1513 1513 1515 1516 1517
1508 1508 1507 1507 1507 1507 1507 1507 1507 1506 1504 1503 1503 1502 1502 1502 1502 1502 1502 1502 1501 1501 1501 1501 1502 1502 1503 1503 1503 1504 1504 1505 1505 1505 1506 1507 1507 1507 1507 1507 1508 1509 1509 1510 1511 1511 1512 1513 1514
1508 1507 1507 1507 1507 1507 1506 1506 1506 1504 1503 1502 1502 1501 1501 1501 1501 1500 1500 1499 1499 1499 1499 1499 1499 1500 1501 1501 1502 1502 1502 1502 1503 1503 1504 1504 1505 1505 1505 1505 1506 1507 1507 1508 1508 1509 1510 1511 1512
1507 1508 1507 1507 1506 1506 1506 1507 1506 1504 1503 1501 1501 1501 1500 1500 1499 1499 1498 1498 1498 1497 1497 1497 1497 1498 1499 1499 1499 1500 1500 1501 1501 1502 1502 1502 1503 1503 1503 1504 1504 1504 1505 1505 1506 1507 1507 1509 1509
1508 1510 1512 1509 1507 1506 1509 1510 1505 1504 1502 1501 1500 1500 1499 1498 1497 1497 1497 1497 1496 1496 1495 1495 1496 1496 1497 1497 1498 1498 1498 1498 1499 1499 1500 1500 1500 1501 1501 1502 1502 1502 1503 1503 1504 1504 1505 1506 1507
1513 1515 1514 1510 1507 1507 1508 1509 1504 1503 1502 1500 1499 1499 1498 1497 1496 1496 1496 1496 1495 1495 1495 1494 1494 1494 1495 1495 1496 1496 1496 1496 1497 1497 1498 1498 1498 1499 1499 1499 1500 1500 1500 1501 1501 1502 1502 1503 1504
1515 1515 1513 1511 1509 1508 1509 1508 1504 1502 1500 1500 1499 1497 1496 1495 1495 1495 1494 1494 1494 1493 1493 1493 1493 1493 1493 1493 1493 1494 1494 1494 1494 1494 1495 1495 1496 1496 1497 1497 1497 1497 1498 1498 1499 1499 1500 1501 1502
1512 1513 1513 1511 1508 1509 1508 1507 1504 1501 1499 1498 1497 1496 1495 1495 1494 1493 1493 1492 1491 1490 1490 1490 1490 1490 1490 1490 1490 1491 1491 1491 1492 1492 1492 1492 1493 1493 1494 1494 1495 1495 1495 1496 1496 1496 1498 1499 1499
1511 1512 1512 1510 1508 1508 1508 1506 1501 1499 1497 1497 1496 1494 1494 1492 1491 1491 1491 1490 1488 1488 1488 1487 1488 1488 1488 1488 1489 1489 1489 1489 1489 1489 1489 1490 1490 1491 1491 1492 1492 1492 1493 1493 1493 1493 1495 1496 1497
1510 1511 1510 1510 1508 1507 1509 1505 1501 1497 1497 1496 1494 1493 1492 1491 1490 1490 1489 1488 1488 1487 1486 1486 1485 1486 1486 1487 1487 1487 1487 1486 1486 1486 1486 1487 1487 1488 1489 1490 1490 1490 1490 1490 1491 1492 1492 1493 1495
1510 1509 1508 1508 1511 1512 1511 1511 1500 1498 1496 1494 1493 1491 1490 1490 1489 1488 1487 1486 1485 1484 1484 1484 1484 1484 1484 1484 1484 1484 1483 1483 1483 1484 1484 1484 1485 1486 1487 1487 1488 1488 1488 1488 1489 1489 1490 1491 1492
1510 1509 1509 1509 1511 1513 1512 1513 1503 1498 1497 1494 1493 1491 1490 1489 1487 1486 1485 1485 1483 1483 1482 1481 1481 1481 1481 1481 1481 1481 1480 1481 1481 1481 1482 1482 1482 1483 1484 1485 1485 1486 1486 1487 1487 1488 1488 1490 1490
1509 1510 1510 1512 1515 1516 1511 1513 1506 1500 1496 1494 1491 1490 1488 1487 1486 1485 1484 1483 1482 1481 1480 1479 1478 1478 1478 1478 1479 1479 1478 1478 1478 1478 1479 1479 1480 1481 1482 1482 1482 1483 1484 1485 1485 1486 1487 1487 1488
1511 1514 1520 1520 1522 1516 1511 1510 1504 1494 1492 1491 1490 1488 1487 1486 1484 1483 1482 1481 1480 1479 1478 1477 1476 1476 1476 1476 1477 1477 1477 1477 1476 1476 1477 1477 1477 1478 1479 1479 1480 1481 1482 1482 1483 1483 1484 1485 1486
1514 1514 1522 1524 1523 1516 1512 1510 1499 1492 1490 1489 1488 1487 1485 1484 1483 1482 1481 1480 1479 1478 1477 1475 1474 1474 1474 1474 1474 1474 1475 1475 1475 1475 1475 1475 1476 1476 1477 1477 1478 1478 1479 1480 1480 1481 1481 1482 1483
1514 1517 1517 1524 1526 1524 1515 1509 1497 1491 1489 1487 1486 1485 1484 1483 1482 1481 1479 1478 1477 1476 1475 1474 1473 1472 1472 1472 1472 1471 1472 1472 1472 1473 1472 1473 1474 1474 1474 1475 1475 1476 1476 1477 1477 1478 1479 1480 1481
1514 1516 1521 1523 1522 1521 1514 1509 1502 1493 1491 1489 1487 1485 1483 1482 1481 1479 1478 1477 1476 1475 1474 1473 1471 1471 1470 1470 1469 1469 1469 1469 1470 1470 1470 1471 1472 1472 1472 1472 1472 1473 1473 1474 1475 1475 1476 1477 1478
1516 1517 1519 1523 1522 1523 1519 1505 1492 1491 1489 1488 1487 1484 1483 1481 1480 1478 1477 1476 1474 1473 1472 1471 1469 1468 1467 1466 1466 1466 1466 1467 1467 1468 1468 1469 1470 1470 1470 1470 1470 1471 1471 1472 1472 1473 1474 1474 1475
1514 1515 1519 1521 1523 1524 1522 1507 1490 1489 1487 1486 1485 1484 1482 1481 1479 1478 1476 1474 1473 1471 1470 1469 1468 1467 1465 1464 1463 1463 1464 1464 1465 1466 1466 1467 1467 1468 1468 1468 1468 1469 1469 1470 1470 1470 1471 1472 1472